Main page
METAR-TAF:

METAR-TAF

Airports :

RAF Kinloss

Kinloss, Scotland

latitude: 57-39N, longitude: 003-34W, elevation: 7 m

Current weather observation

The report was made 56 minutes ago, at 14:50 UTC
Wind 20 kt from the West
Temperature 10°C
Humidity 71%
Pressure 1021 hPa
Visibility 10 km or more

METAR: EGQK 211450Z AUTO 26020KT 9999 SCT050/// 10/05 Q1021 RERA

Time: 16:46 (15:46 UTC)


TAF: missing

Weather observations and forecasts of more than 4000 airports (METAR and TAF reports).

The available stations are represented by yellow and red dots on the map.

Hover mouse over dot to see the name of the station.

Then click to see weather observations and forecasts.

To change the map : click on the green buttons with a black cross to zoom in, on the green button with a dash to zoom out, or on the green arrows for adjacent maps.


METAR-TAF: